Location: Bettgenhausen
(50.6463°N, 7.5681°E)
Time: 15:00:23
(UTC+00:00)

STARLINK-1061 - Pass Details

Date: 27 February 2020
Orbit: 549 x 550 km, 53.0° (Epoch: 08 April)

Event Time Altitude Azimuth Distance (km) Brightness Sun altitude
Rises 19:18:30 0° 247° (WSW) 2,713 8.0 -21.5°
Reaches altitude 10° 19:20:43 10° 247° (WSW) 1,822 7.0 -21.9°
Maximum altitude 19:24:52 87° 161° (SSE) 557 3.5 -22.5°
Enters shadow 19:24:55 86° 130° (SE) 557 3.5 -22.5°
